[[{"header":{"parameterUnit":"m.s-1","parameterCategory":1,"la1":30.2991,"la2":30.254,"lo1":-89.0895,"lo2":-89.0444,"dy":0.0017,"dx":0.0017,"nx":28,"ny":28,"refTime":"2023-04-06T21:00:00:Z","depth":0,"parameterNumber":2,"parameterNumberName":"U-component_of_WINDS"},"data":[0,0,0,0,0,0,0,0,0,0,0,0,0,0,0,0,0,0,0,0,0,0,0,0,0,0,0,0,0,0,0,0,0,0,0,0,0,0,0,0,0,0,0,0,0,0,0,0,0,0,0,0,0,0,0,0,0,0,-2.1957,-2.1959,0,-2.2139,-2.2141,-2.2143,-2.2173,-2.2171,-2.2169,-2.2168,-2.2353,-2.2359,-2.2365,0,0,0,0,0,0,0,0,0,0,0,0,0,-2.1634,-2.164,-2.1957,-2.1959,-2.1962,-2.2139,-2.2141,-2.2144,-2.2173,-2.2171,-2.2169,-2.2167,-2.2351,-2.2358,-2.2366,0,0,0,0,0,0,0,0,0,0,0,0,0,-2.1791,-2.1641,-2.1957,-2.1998,-2.2003,-2.2138,-2.2141,-2.2144,-2.2173,-2.2171,-2.2168,-2.2166,-2.2348,-2.2357,-2.2367,-2.2474,0,0,-2.2396,-2.24,0,0,0,0,0,0,0,0,-2.1782,-2.1803,-2.1989,-2.1995,-2.2001,-2.2131,-2.2095,-2.2255,-2.2174,-2.2109,-2.2168,-2.2165,-2.2281,-2.2296,-2.2335,-2.2482,-2.249,-2.2397,-2.2403,-2.2407,-2.241,0,0,0,0,0,0,0,-2.1771,-2.1795,-2.2029,-2.1992,-2.1999,-2.2006,-2.2026,-2.2125,-2.2206,-2.2114,-2.2117,-2.2138,-2.2283,-2.2326,-2.2339,-2.2493,-2.2397,-2.2405,-2.2411,-2.2415,-2.2737,-2.274,0,0,0,0,0,0,-2.1753,-2.1786,-2.2023,-2.2035,-2.1884,-2.2014,-2.2036,-2.2092,-2.2205,-2.222,-2.214,-2.2139,-2.231,-2.2328,-2.2346,-2.2479,-2.2407,-2.2416,-2.2421,-2.2734,-2.2738,-2.2741,0,0,0,0,0,0,-2.1746,-2.1774,-2.2016,-2.1911,-2.1942,-2.2022,-2.2084,-2.2096,-2.2139,-2.2224,-2.2238,-2.2168,-2.2309,-2.2333,-2.2442,-2.2486,-2.242,-2.2429,-2.2731,-2.2735,-2.2739,-2.2746,0,0,0,0,0,0,-2.1736,-2.1771,-2.1813,-2.1912,-2.1948,-2.2109,-2.2087,-2.2102,-2.2155,-2.2155,-2.2255,-2.2269,-2.2309,-2.2427,-2.2451,-2.2498,-2.2436,-2.2727,-2.2733,-2.2738,-2.2742,-2.275,-2.2756,0,0,0,0,0,-2.1725,-2.1807,-2.1815,-2.1843,-2.2002,-2.2112,-2.2132,-2.2178,-2.2159,-2.2201,-2.2256,-2.2265,-2.2477,-2.2438,-2.2466,-2.2516,-2.2725,-2.2731,-2.2737,-2.2739,-2.2748,-2.2756,0,0,0,0,0,0,-2.1711,-2.1821,-2.1831,-2.1947,-2.202,-2.2117,-2.2172,-2.2186,-2.2265,-2.2262,-2.2315,-2.2337,-2.2443,-2.249,-2.2445,-2.2625,-2.2599,-2.2611,-2.2591,-2.2601,-2.2608,-2.2595,-2.2444,0,0,0,0,0,-2.1721,-2.1802,-2.1893,-2.1988,-2.2024,-2.2091,-2.2141,-2.217,-2.2247,-2.2277,-2.234,-2.2414,-2.2498,-2.2551,-2.2633,-2.2748,-2.2771,-2.2796,-2.2803,-2.2809,-2.2819,-2.2884,-2.2897,-2.2761,-2.2761,-2.2761,0,0,-2.1744,-2.1814,-2.1862,-2.1987,-2.2047,-2.2129,-2.2117,-2.2204,-2.2266,-2.2291,-2.2398,-2.2447,-2.2533,-2.2646,-2.2699,-2.2688,-2.2861,-2.2817,-2.282,-2.2828,-2.2892,-2.2905,-2.2916,-2.2766,-2.2765,-2.2764,0,0,-2.1828,-2.1889,-2.1974,-2.2034,-2.2125,-2.217,-2.219,-2.2284,-2.2318,-2.2426,-2.2447,-2.252,-2.2662,-2.2723,-2.2772,-2.2878,-2.289,-2.2903,-2.2941,-2.3004,-2.3015,-2.3025,-2.3063,-2.3077,-2.2913,-2.2913,-2.2913,0,-2.1845,-2.197,-2.2016,-2.2104,-2.2158,-2.2184,-2.2271,-2.2327,-2.2439,-2.2476,-2.2462,-2.2642,-2.2701,-2.2829,-2.2855,-2.2894,-2.2919,-2.2893,-2.301,-2.302,-2.303,-2.3067,-2.3082,-2.2914,-2.2914,-2.2914,-2.2914,0,-2.1987,-2.2073,-2.2131,-2.224,-2.2301,-2.2387,-2.2446,-2.2502,-2.2524,-2.257,-2.268,-2.2753,-2.2849,-2.2881,-2.2904,-2.3013,-2.3004,-2.2999,-2.2975,-2.3043,-2.3079,-2.3094,-2.2915,-2.2915,-2.2915,-2.2914,0,0,-2.2068,-2.2201,-2.2222,-2.2272,-2.2373,-2.2441,-2.2528,-2.2623,-2.267,-2.2746,-2.2821,-2.294,-2.2937,-2.2993,-2.3022,-2.3077,-2.3158,-2.3067,-2.3069,-2.3082,-2.3283,-2.3287,-2.3303,-2.3166,-2.3169,-2.3171,-2.3276,0,-2.2165,-2.2323,-2.2367,-2.25,-2.2581,-2.2606,-2.2682,-2.2752,-2.2797,-2.2871,-2.292,-2.3004,-2.2993,-2.3027,-2.3082,-2.3136,-2.3199,-2.3129,-2.3236,-2.3239,-2.3216,-2.3322,-2.3327,-2.3423,-2.329,-2.3293,-2.3295,0,-2.23,-2.2379,-2.2521,-2.2612,-2.2648,-2.2716,-2.2806,-2.2877,-2.2957,-2.2985,-2.3048,-2.3072,-2.3164,-2.3133,-2.326,-2.3211,-2.3257,-2.329,-2.3295,-2.3308,-2.3272,-2.3339,-2.3454,-2.3469,-2.3317,-2.3315,-2.3314,0,-2.2347,-2.2489,-2.2592,-2.2634,-2.2743,-2.279,-2.2837,-2.2915,-2.2969,-2.3048,-2.3084,-2.3172,-2.322,-2.3287,-2.3335,-2.3308,-2.3458,-2.3431,-2.3485,-2.3484,-2.3517,-2.3515,-2.3643,-2.3544,-2.3543,-2.3543,-2.3543,0,-2.2451,-2.2537,-2.2615,-2.2679,-2.2775,-2.2824,-2.2919,-2.2967,-2.3036,-2.3109,-2.3135,-2.3203,-2.3261,-2.3337,-2.3374,-2.3474,-2.3495,-2.3521,-2.353,-2.352,-2.3517,-2.3552,-2.3547,-2.3547,-2.3546,-2.3545,-2.3545,0,-2.2521,-2.2577,-2.2691,-2.2785,-2.281,-2.2878,-2.2958,-2.302,-2.3065,-2.3157,-2.3182,-2.3252,-2.3343,-2.3396,-2.351,-2.3535,-2.3646,-2.3652,-2.362,-2.3624,-2.3676,-2.3671,-2.3832,-2.3857,-2.374,-2.3741,-2.3741,0,-2.2585,-2.2652,-2.2753,-2.2804,-2.2853,-2.2935,-2.2991,-2.3041,-2.3098,-2.3193,-2.3244,-2.3336,-2.3413,-2.3556,-2.3617,-2.3704,-2.3713,-2.3763,-2.3726,-2.3714,-2.3716,-2.3712,-2.3719,-2.377,-2.3771,-2.3772,-2.3773,0,-2.2693,-2.2718,-2.2797,-2.2887,-2.2953,-2.3026,-2.3098,-2.3138,-2.32,-2.3263,-2.3356,-2.3415,-2.3532,-2.3623,-2.3715,-2.3763,-2.3779,-2.3784,-2.3801,-2.3792,-2.3772,-2.3785,-2.3639,-2.378,-2.378,-2.3779,-2.3779,-2.3778,-2.2764,-2.2825,-2.2906,-2.2994,-2.3053,-2.312,-2.3184,-2.3237,-2.3315,-2.3415,-2.3439,-2.3537,-2.3615,-2.374,-2.3791,-2.3868,-2.3859,-2.3884,-2.3891,-2.3897,-2.3899,-2.3758,-2.3884,-2.3884,-2.3884,-2.3884,-2.3884,0,-2.2875,-2.2928,-2.3008,-2.3109,-2.3178,-2.3187,-2.3267,-2.3324,-2.341,-2.3482,-2.3557,-2.3663,-2.3752,-2.3819,-2.391,-2.3958,-2.3968,-2.3981,-2.3979,-2.399,-2.39,-2.3877,-2.3972,-2.3972,-2.3972,-2.3972,-2.3972,-2.3972,-2.2941,-2.3045,-2.3078,-2.3212,-2.3264,-2.3361,-2.3406,-2.3468,-2.3526,-2.3644,-2.3718,-2.3761,-2.3832,-2.3927,-2.4009,-2.4026,-2.4059,-2.4071,-2.409,-2.4005,-2.3996,-2.3987,-2.3965,-2.4077,-2.4077,-2.4173,-2.4174,-2.4174]},{"header":{"parameterUnit":"m.s-1","parameterCategory":1,"la1":30.2991,"la2":30.254,"lo1":-89.0895,"lo2":-89.0444,"dy":0.0017,"dx":0.0017,"nx":28,"ny":28,"refTime":"2023-04-06T21:00:00:Z","depth":0,"parameterNumber":3,"parameterNumberName":"V-component_of_WINDS"},"data":[0,0,0,0,0,0,0,0,0,0,0,0,0,0,0,0,0,0,0,0,0,0,0,0,0,0,0,0,0,0,0,0,0,0,0,0,0,0,0,0,0,0,0,0,0,0,0,0,0,0,0,0,0,0,0,0,0,0,2.3918,2.392,0,2.4072,2.4074,2.4076,2.4147,2.4147,2.4147,2.4147,2.43,2.4304,2.4308,0,0,0,0,0,0,0,0,0,0,0,0,0,2.3685,2.3689,2.3918,2.392,2.3922,2.4072,2.4074,2.4076,2.4147,2.4147,2.4147,2.4147,2.4299,2.4304,2.4309,0,0,0,0,0,0,0,0,0,0,0,0,0,2.3807,2.369,2.3918,2.3976,2.3983,2.4072,2.4074,2.4077,2.4147,2.4147,2.4147,2.4147,2.4297,2.4303,2.4309,2.4351,0,0,2.4328,2.4331,0,0,0,0,0,0,0,0,2.38,2.3816,2.3965,2.3972,2.398,2.4091,2.4048,2.4169,2.4147,2.4085,2.4147,2.4147,2.423,2.4242,2.4271,2.4358,2.4365,2.4329,2.4333,2.4335,2.4337,0,0,0,0,0,0,0,2.3792,2.3809,2.3979,2.3967,2.3976,2.3994,2.4011,2.4071,2.4156,2.409,2.4096,2.4113,2.4234,2.4265,2.4275,2.4367,2.4329,2.4334,2.4338,2.4341,2.4502,2.4502,0,0,0,0,0,0,2.3774,2.3802,2.3974,2.3984,2.3888,2.3998,2.4017,2.4055,2.4156,2.4171,2.4113,2.4116,2.4254,2.4268,2.4281,2.434,2.4335,2.4341,2.4345,2.4501,2.4502,2.4502,0,0,0,0,0,0,2.3769,2.3789,2.3968,2.3895,2.3919,2.4002,2.4044,2.4058,2.4089,2.4173,2.4189,2.4129,2.4255,2.4272,2.4335,2.4346,2.4344,2.435,2.4501,2.4501,2.4502,2.4456,0,0,0,0,0,0,2.3762,2.3786,2.3803,2.3894,2.3922,2.4019,2.4045,2.4061,2.41,2.4105,2.4192,2.4206,2.4256,2.4325,2.4341,2.4355,2.4355,2.45,2.4501,2.4502,2.4457,2.4455,2.4454,0,0,0,0,0,2.3753,2.3781,2.3803,2.3824,2.3945,2.402,2.4036,2.4093,2.4101,2.4119,2.4174,2.4204,2.4342,2.4331,2.4349,2.4365,2.4499,2.4501,2.4502,2.4457,2.4455,2.4454,0,0,0,0,0,0,2.3686,2.3794,2.382,2.3878,2.394,2.4032,2.4055,2.4088,2.4147,2.4149,2.4217,2.4236,2.4293,2.4335,2.432,2.4414,2.4424,2.4429,2.4384,2.4383,2.4381,2.437,2.436,0,0,0,0,0,2.3678,2.3731,2.3822,2.3865,2.3895,2.397,2.4004,2.4044,2.411,2.4135,2.4194,2.4256,2.4314,2.435,2.4408,2.4463,2.4485,2.4484,2.4482,2.448,2.4484,2.4521,2.4523,2.4506,2.4506,2.4506,0,0,2.3662,2.3728,2.3756,2.3854,2.3906,2.3959,2.3991,2.4044,2.4085,2.4143,2.4207,2.4253,2.4326,2.4387,2.4416,2.4424,2.4494,2.4482,2.448,2.4485,2.4523,2.4524,2.4525,2.4507,2.4507,2.4507,0,0,2.3661,2.3715,2.3759,2.3812,2.3892,2.3943,2.3953,2.4042,2.4075,2.4141,2.4187,2.4236,2.4333,2.4386,2.4424,2.4449,2.448,2.4466,2.4457,2.4493,2.4494,2.4495,2.4507,2.4511,2.4469,2.4469,2.4469,0,2.363,2.3713,2.3777,2.3831,2.3873,2.3932,2.3978,2.4025,2.4119,2.4147,2.4154,2.4282,2.4335,2.4411,2.4417,2.4446,2.4462,2.4456,2.4489,2.4491,2.4493,2.4506,2.451,2.4467,2.4467,2.4467,2.4467,0,2.3674,2.3731,2.3757,2.385,2.3896,2.3944,2.4017,2.4055,2.4092,2.4142,2.4211,2.4277,2.4352,2.4373,2.4407,2.4455,2.4458,2.4476,2.4488,2.4492,2.4505,2.451,2.4464,2.4464,2.4465,2.4466,0,0,2.3631,2.3763,2.3772,2.3817,2.3912,2.3957,2.401,2.4086,2.4119,2.4183,2.423,2.4314,2.4334,2.4378,2.442,2.4451,2.4471,2.4466,2.4469,2.4467,2.4532,2.4519,2.4523,2.4492,2.4493,2.4494,2.4527,0,2.3644,2.3744,2.3806,2.388,2.3936,2.3995,2.4042,2.4105,2.4155,2.4209,2.4263,2.4323,2.4342,2.437,2.4403,2.4461,2.4485,2.4459,2.4539,2.4541,2.452,2.4529,2.4514,2.4541,2.4532,2.4532,2.4533,0,2.3672,2.3739,2.382,2.3915,2.394,2.3981,2.4058,2.4109,2.4184,2.4218,2.427,2.4314,2.4374,2.4381,2.4467,2.4448,2.4485,2.4518,2.4521,2.4531,2.4538,2.4542,2.4551,2.4556,2.4541,2.454,2.454,0,2.3637,2.3746,2.3811,2.3847,2.3957,2.3986,2.4033,2.4108,2.4151,2.4218,2.4248,2.4319,2.4359,2.4414,2.4477,2.4476,2.4557,2.4569,2.4589,2.4587,2.4603,2.4602,2.4621,2.4623,2.4623,2.4623,2.4623,0,2.3646,2.3694,2.3797,2.3836,2.3894,2.3965,2.4019,2.407,2.4138,2.4189,2.4243,2.429,2.4369,2.4427,2.4476,2.4542,2.4558,2.4588,2.4601,2.4585,2.4581,2.461,2.461,2.4624,2.4624,2.4624,2.4624,0,2.3615,2.3685,2.376,2.3861,2.3887,2.3925,2.4011,2.4053,2.4107,2.4172,2.4191,2.4275,2.4346,2.4415,2.4508,2.4542,2.4608,2.4623,2.4583,2.4591,2.4608,2.4607,2.4648,2.4659,2.4651,2.4651,2.4651,0,2.3616,2.3656,2.3762,2.3802,2.3849,2.3911,2.3958,2.403,2.4076,2.4168,2.4199,2.4274,2.4339,2.445,2.4519,2.4593,2.4612,2.4622,2.4623,2.4607,2.4616,2.4614,2.462,2.462,2.4619,2.4619,2.4619,0,2.3613,2.3648,2.3713,2.3792,2.3847,2.3911,2.3978,2.4007,2.4093,2.4142,2.4217,2.4267,2.4366,2.4442,2.4525,2.4573,2.4612,2.4619,2.4628,2.4612,2.4589,2.4605,2.4582,2.4617,2.4617,2.4617,2.4617,2.4618,2.36,2.364,2.3723,2.3795,2.3854,2.3917,2.3963,2.4025,2.4089,2.4177,2.4216,2.4293,2.4371,2.4487,2.4536,2.4598,2.4606,2.4618,2.4622,2.4624,2.4623,2.4578,2.4612,2.4612,2.4613,2.4613,2.4613,0,2.3602,2.366,2.3726,2.382,2.3878,2.3912,2.3989,2.4035,2.4103,2.4174,2.4238,2.4327,2.4402,2.4479,2.4559,2.4594,2.4614,2.4612,2.4611,2.4623,2.4608,2.4594,2.4596,2.4596,2.4596,2.4596,2.4596,2.4596,2.361,2.3681,2.3726,2.3828,2.3885,2.3963,2.4005,2.4064,2.4122,2.422,2.4284,2.4335,2.441,2.4497,2.4568,2.4589,2.4617,2.4611,2.4637,2.4622,2.4623,2.4624,2.4611,2.4616,2.4616,2.4648,2.4648,2.4648]}]]